Regional Weather Roundup
Issued by NWS

Home | Current Version | Previous Version | Graphics & Text | Print | Product List | Glossary On
Versions: 1 2 3 4 5 6 7 8 9 10 11 12 13 14 15 16 17 18 19 20 21 22 23 24 25 26 27 28 29 30 31 32 33 34 35 36 37 38 39 40 41 42 43 44 45 46 47 48 49 50
153
ASUS45 KPSR 231810
RWRAZ

ARIZONA REGIONAL HOURLY WEATHER ROUNDUP
NATIONAL WEATHER SERVICE TUCSON AZ
1100 AM MST FRI JUN 23 2017

NOTE: FAIR INDICATES FEW OR NO CLOUDS BELOW 12,000 FEET WITH NO
SIGNIFICANT WEATHER AND/OR OBSTRUCTIONS TO VISIBILITY.

AZZ001>003-036-231900-
NORTHWEST ARIZONA

CITY           SKY/WX    TMP DP  RH WIND       PRES   REMARKS
BULLHEAD CITY  SUNNY    104  54  18 SW9       29.75F HX 102
KINGMAN        SUNNY     99  44  15 SW15      29.97S
6HR MIN TEMP:  73; 6HR MAX TEMP:  99;

$$

AZZ004>008-015-016-018-231900-
NORTH CENTRAL ARIZONA

CITY           SKY/WX    TMP DP  RH WIND       PRES   REMARKS
GRAND CANYON   SUNNY     90  27  10 N6        30.23S
6HR MIN TEMP:  45; 6HR MAX TEMP:  90;

PRESCOTT       SUNNY     96  29   9 NW8       30.10F
6HR MIN TEMP:  67; 6HR MAX TEMP:  96;

FLAGSTAFF      SUNNY     86  15   7 W9G17     30.25S
6HR MIN TEMP:  50; 6HR MAX TEMP:  88;

PAYSON         CLEAR     95  37  13 W8        30.13F
PAGE           SUNNY     93  28  10 CALM      30.04S
6HR MIN TEMP:  75; 6HR MAX TEMP:  94;

$$

AZZ009>014-017-231900-
NORTHEAST ARIZONA

CITY           SKY/WX    TMP DP  RH WIND       PRES   REMARKS
WINSLOW        SUNNY     94  25   8 E6        30.09F
6HR MIN TEMP:  60; 6HR MAX TEMP:  95;

SAINT JOHNS    SUNNY     93  25   8 N7        30.13F
6HR MIN TEMP:  64; 6HR MAX TEMP:  94;

WINDOW ROCK    SUNNY     90  29  11 N7        30.22F
6HR MIN TEMP:  50; 6HR MAX TEMP:  90;

SHOW LOW       SUNNY     86  23  10 NE7       30.22S
$$

AZZ023-231900-
GREATER PHOENIX AREA

CITY           SKY/WX    TMP DP  RH WIND       PRES   REMARKS
PHOENIX        SUNNY    100  54  21 W8        29.80S
6HR MIN TEMP:  88; 6HR MAX TEMP: 100;

BUCKEYE        CLEAR     99  52  20 S7        29.82S
GLENDALE       SUNNY    100  54  20 S10       29.82S
LUKE AFB       SUNNY     99  56  23 S12       29.80S
6HR MIN TEMP:  85; 6HR MAX TEMP:  99;

DEER VALLEY    SUNNY     98  53  22 SW8       29.83S
6HR MIN TEMP:  83; 6HR MAX TEMP:  98;

SCOTTSDALE     SUNNY     99  51  19 W9        29.85S
6HR MIN TEMP:  87; 6HR MAX TEMP:  99;

MESA-FALCON    SUNNY     99  59  26 W8        29.83S
MESA-GATEWAY   SUNNY     99  57  25 W6        29.83F
CHANDLER       SUNNY     99  57  25 S5        29.82S
$$

AZZ027-028-231900-
SOUTHWEST MARICOPA COUNTY AND PINAL COUNTY

CITY           SKY/WX    TMP DP  RH WIND       PRES   REMARKS
CASA GRANDE    SUNNY     98  54  22 W12       29.84F
6HR MIN TEMP:  80; 6HR MAX TEMP:  99;

$$

AZZ503-504-507>509-231900-
SOUTHEAST ARIZONA

CITY           SKY/WX    TMP DP  RH WIND       PRES   REMARKS
TUCSON         SUNNY    100  54  21 NW7G22    29.94F
6HR MIN TEMP:  84; 6HR MAX TEMP: 100;

DAVIS-MONTHAN  MOSUNNY   97  55  24 W7        29.92F
6HR MIN TEMP:  81; 6HR MAX TEMP:  98;

RYAN FIELD     CLEAR     99  55  23 NW8       29.92F
NOGALES        MOSUNNY   96  55  25 SW9       30.03F
6HR MIN TEMP:  75; 6HR MAX TEMP:  97;

SIERRA VISTA   SUNNY     95  47  19 NW13G21   30.09F
6HR MIN TEMP:  79; 6HR MAX TEMP:  95;

DOUGLAS        MOSUNNY   96  48  19 NW9G18    30.02F
6HR MIN TEMP:  76; 6HR MAX TEMP:  96;

SAFFORD        SUNNY    103  45  14 W21G26    29.88F
6HR MIN TEMP:  83; 6HR MAX TEMP: 103;

$$

AZZ020-021-025-026-031-231900-
SOUTHWEST ARIZONA

CITY           SKY/WX    TMP DP  RH WIND       PRES   REMARKS
YUMA           MOSUNNY   99  58  25 S15       29.77S
6HR MIN TEMP:  80; 6HR MAX TEMP:  99;

$$

CAZ031-033-041-043-047-048-061-231900-
SOUTHERN CALIFORNIA

CITY           SKY/WX    TMP DP  RH WIND       PRES   REMARKS
DOWNTOWN L.A.  SUNNY     77  62  59 CALM      29.89  HAZE
6HR MIN TEMP:  66; 6HR MAX TEMP:  77;

L.A. AIRPORT   CLOUDY    68  62  81 SW8       29.91R
6HR MIN TEMP:  64; 6HR MAX TEMP:  68;

SAN DIEGO      CLOUDY    69  62  78 W6        29.93S
6HR MIN TEMP:  66; 6HR MAX TEMP:  69;

BURBANK        SUNNY     76  60  57 SE7G16    29.90S
6HR MIN TEMP:  63; 6HR MAX TEMP:  77;

ONTARIO        MOSUNNY   80  60  50 SW5       29.90F HAZE
6HR MIN TEMP:  63; 6HR MAX TEMP:  80;

RIVERSIDE      SUNNY     80  62  54 W5        29.90F
6HR MIN TEMP:  62; 6HR MAX TEMP:  80;

PALM SPRINGS   SUNNY     99  55  23 VRB6      29.78F
6HR MIN TEMP:  81; 6HR MAX TEMP: 100;

EL CENTRO NAS  MOSUNNY   94  67  41 SE6       29.76S
6HR MIN TEMP:  75; 6HR MAX TEMP:  94;

IMPERIAL       SUNNY     95  71  45 E7        29.74S HX 102
6HR MIN TEMP:  78; 6HR MAX TEMP:  95;

BLYTHE         SUNNY     98  59  27 S6        29.76S
6HR MIN TEMP:  81; 6HR MAX TEMP:  98;

NEEDLES          N/A    108  51  15 E9        29.77  HX 105
6HR MIN TEMP:  91; 6HR MAX TEMP: 108;

$$

NVZ020-UTZ003-231900-
SOUTHERN NEVADA-UTAH

CITY           SKY/WX    TMP DP  RH WIND       PRES   REMARKS
LAS VEGAS      SUNNY    102  20   5 VRB6      29.87S
6HR MIN TEMP:  89; 6HR MAX TEMP: 103;

SALT LAKE CITY SUNNY     79  36  21 NW8       30.17S
6HR MIN TEMP:  60; 6HR MAX TEMP:  79;

$$

NMZ009-TXZ055-231900-
NEW MEXICO-WEST TEXAS

CITY           SKY/WX    TMP DP  RH WIND       PRES   REMARKS
ALBUQUERQUE    MOSUNNY   90  28  11 N8        30.10S
6HR MIN TEMP:  72; 6HR MAX TEMP:  91;

EL PASO        MOSUNNY  103  28   7 N17       29.90S
6HR MIN TEMP:  79; 6HR MAX TEMP: 104;

$$


........................KEY........................
SKY/WX - SKY CONDITION/WEATHER
TMP    - TEMPERATURE IN FAHRENHEIT
DP     - DEWPOINT IN FAHRENHEIT
RH     - RELATIVE HUMIDITY IN PERCENT
WIND   - DIRECTION AND SPEED IN MILES PER HOUR (MPH)
VRB    - VARIABLE WIND DIRECTION
PRES   - MEAN SEA LEVEL PRESSURE IN INCHES OF MERCURY
         F - FALLING PRESSURE   R - RISING PRESSURE
         S - STEADY PRESSURE
VSB    - VISIBILITY IN MILES
HX     - HEAT INDEX IN FAHRENHEIT
WCI    - WIND CHILL INDEX IN FAHRENHEIT
TC     - TEMPERATURE IN CELSIUS WHICH IS ALSO KNOWN AS
         TEMPERATURE IN CENTIGRADE
AFB    - AIR FORCE BASE
         LUKE AFB IS LUKE AIR FORCE BASE
         DAVIS-MONTHAN IS DAVIS-MONTHAN AIR FORCE BASE
NAS    - NAVAL AIR STATION
         EL CENTRO NAS IS EL CENTRO NAVAL AIR STATION
N/A    - NOT AVAILABLE





USA.gov is the U.S. government's official web portal to all federal, state and local government web resources and services.